Lapse_Rate
7.1 6.5 6.5 6.5 6.5 6.5 6.5 6.5 6.5 6.5 6.5 6.5 6.5 6.5 6.5 7.1 7.2 7.1 7.4 7.6 7.7 7.9 6.8 5.0 4.4 4.7 5.3 4.8 4.4 4.2 4.0 3.9 4.6 4.5 4.4 4.3 3.2 2.8 1.9 1.3 1.4 1.5 2.0 2.4
6.5 6.5 6.5 6.5 6.5 6.5 6.5 6.5 6.5 6.5 6.5 6.5 6.5 6.5 6.5 6.7 6.9 7.2 7.3 7.5 7.7 7.9 8.1 6.2 5.4 5.2 6.2 5.9 5.7 5.5 5.4 6.1 6.3 5.5 4.6 3.9 2.9 2.1 1.1 0.5 0.2 0.2 0.4 0.8
6.5 6.5 6.6 6.5 6.5 6.5 6.5 6.5 6.5 6.5 6.5 6.5 6.5 6.5 6.5 6.5 7.0 7.2 7.5 7.7 7.9 7.9 8.0 7.8 6.5 6.4 6.0 5.6 5.4 5.5 5.4 5.4 4.6 4.0 3.3 2.5 2.1 2.0 1.4 0.4 -0.3 -0.5 0.2 0.7
6.5 6.6 6.5 6.5 6.5 6.5 6.5 6.5 6.5 6.5 6.5 6.5 6.5 6.5 6.5 6.5 6.5 6.6 7.1 7.5 7.7 7.9 8.2 8.3 7.1 6.4 4.8 4.0 3.9 4.3 3.9 3.8 4.2 4.8 4.2 4.0 3.0 1.4 1.2 0.5 -0.0 -0.4 -0.1 0.5
6.5 6.5 6.5 6.5 6.5 6.5 6.5 6.5 6.5 6.5 6.5 6.5 6.5 6.5 6.5 6.5 6.5 6.5 6.9 7.3 7.6 8.0 8.1 8.0 7.2 5.2 3.9 3.4 3.0 2.7 2.4 2.3 2.5 2.7 2.7 2.3 1.5 1.4 1.3 0.8 0.7 0.8 0.8 1.1
6.5 7.1 6.5 6.5 6.5 6.5 6.5 6.5 6.5 6.5 6.5 6.5 6.5 6.5 6.5 6.5 6.5 6.5 6.8 7.3 7.6 7.8 8.1 8.0 5.6 4.0 3.2 1.9 2.1 2.2 2.2 1.9 2.4 3.0 3.1 2.4 1.8 1.7 1.8 2.0 1.8 1.9 1.9 1.6
6.5 6.5 6.5 6.8 6.5 6.5 6.5 6.5 6.5 6.5 6.5 6.5 6.5 6.5 6.5 6.5 6.5 6.5 6.6 7.2 7.6 7.9 8.1 8.1 5.2 4.7 3.7 2.5 2.2 2.3 2.4 1.6 2.0 2.5 2.9 3.1 3.1 3.1 2.7 2.7 2.7 2.5 2.4 2.3
6.5 6.5 6.5 6.5 6.5 6.5 6.5 6.5 6.5 6.5 6.5 6.5 6.5 6.5 6.5 6.5 6.8 7.0 7.2 7.4 7.7 7.8 8.1 7.6 5.7 5.2 3.6 2.4 2.2 2.2 1.8 1.9 2.4 2.6 2.6 3.0 3.0 3.3 3.2 3.2 3.1 2.9 2.8 2.6
6.5 6.5 6.5 6.5 6.5 6.5 6.5 6.5 6.5 6.5 6.5 6.5 6.5 6.5 6.5 6.5 6.5 6.8 6.9 7.4 7.5 7.8 7.9 7.2 6.4 5.3 3.6 2.5 2.5 2.8 2.7 2.6 2.6 2.5 2.5 2.3 2.3 2.6 2.8 3.0 3.1 3.2 3.0 2.7
6.5 6.5 6.5 6.5 6.6 6.6 6.5 6.5 6.5 6.5 6.5 6.5 6.5 6.5 6.5 6.5 6.5 6.5 6.6 7.0 7.5 7.8 8.0 7.7 6.5 4.7 4.0 3.6 3.5 3.6 3.4 3.0 2.7 2.4 2.6 2.7 2.9 3.2 3.2 3.4 3.3 3.2 2.8 3.1
6.5 6.5 6.5 6.5 6.5 6.5 6.5 6.5 6.5 6.5 6.5 6.5 6.5 6.5 6.5 6.5 6.5 6.5 6.6 7.2 7.5 7.8 8.0 7.8 6.7 5.4 4.4 4.2 3.8 3.3 3.3 2.9 2.6 2.8 2.7 2.7 2.8 3.3 3.5 3.4 3.3 3.4 3.4 3.4
6.5 6.5 6.5 6.5 6.5 6.5 6.5 6.5 6.5 6.5 6.5 6.5 6.5 6.5 6.5 6.5 6.5 6.8 6.9 7.4 7.8 7.9 8.0 8.0 7.1 6.0 4.7 4.3 3.8 3.2 3.3 3.0 3.1 3.2 2.9 3.1 3.4 3.5 3.6 3.6 3.7 3.4 3.6 3.4
6.5 6.5 6.5 6.5 6.5 6.5 6.5 6.5 6.5 6.5 6.5 6.5 6.5 6.5 6.5 6.5 6.5 6.9 6.9 7.4 7.6 7.8 8.1 8.1 7.5 5.9 5.2 4.7 4.1 4.0 3.8 3.5 3.4 3.3 3.3 3.6 3.7 3.7 3.9 3.9 3.7 3.6 3.7 3.4
5.9 6.5 6.5 6.5 6.5 6.5 6.5 6.5 6.5 6.5 6.5 6.5 6.5 6.5 6.5 6.5 6.5 6.7 7.0 7.3 7.7 7.8 8.0 8.0 7.8 6.9 6.0 5.1 4.4 4.5 4.3 4.2 3.7 3.4 3.6 3.8 4.0 4.3 4.4 4.0 3.6 3.5 3.4 3.1
6.5 6.5 6.5 6.5 6.5 6.5 6.5 6.5 6.5 6.5 6.5 6.5 6.5 6.5 6.5 6.5 6.5 6.8 7.1 7.3 7.5 7.6 7.8 8.1 7.8 7.7 6.9 5.8 5.6 5.2 5.3 4.4 4.0 3.7 3.7 4.0 4.4 4.7 4.4 3.5 2.8 2.7 2.5 2.5
6.5 6.5 6.5 6.5 6.5 6.5 6.5 6.5 6.5 6.5 6.5 6.5 6.5 6.5 6.5 6.6 6.9 6.8 7.0 7.2 7.2 7.4 7.7 7.8 7.7 7.4 6.5 5.9 5.9 4.7 5.0 3.9 3.8 3.6 3.4 4.1 4.4 3.5 2.3 1.7 1.5 1.4 1.2 1.1
6.5 6.5 6.5 6.5 6.5 6.5 6.5 6.5 6.5 6.5 6.5 6.5 6.5 6.5 6.5 6.5 6.5 5.9 6.0 7.0 6.8 6.9 7.1 7.6 7.4 7.1 6.4 6.0 4.4 4.1 3.5 3.8 2.4 2.2 2.0 2.5 3.0 1.7 1.2 0.9 0.8 0.9 0.9 1.0
6.5 6.5 6.5 6.5 6.5 6.5 6.5 6.5 6.5 6.5 6.5 6.5 6.5 6.5 6.5 6.3 6.1 5.1 5.5 5.2 5.4 6.4 7.2 7.4 7.4 8.0 6.2 4.9 3.5 4.0 3.3 2.7 1.4 1.5 1.7 1.7 1.7 1.0 0.8 0.4 0.4 0.8 1.1 0.5
6.5 6.5 6.5 6.5 6.5 6.5 6.5 6.5 6.5 6.5 6.5 6.5 6.5 6.5 6.5 5.0 5.2 6.4 5.3 5.8 6.4 6.0 6.3 6.3 6.3 6.6 4.6 3.4 2.5 1.9 1.2 1.7 1.1 1.4 1.8 1.2 1.1 0.7 0.4 -0.3 -0.2 0.7 0.7 0.3
6.5 6.5 6.5 6.5 6.5 6.5 6.5 6.5 6.7 6.5 6.5 6.5 6.1 6.5 6.5 6.6 6.5 6.5 3.3 2.9 3.3 4.0 3.4 3.1 3.7 2.8 2.0 2.0 1.4 0.4 0.5 0.6 0.8 1.2 1.6 1.4 0.6 0.6 0.1 -0.3 -0.4 0.1 -0.2 -0.1
6.5 6.5 6.5 6.5 6.5 6.5 6.5 6.5 6.5 6.5 6.5 6.2 6.0 6.3 6.4 6.5 6.0 3.8 2.8 3.0 3.2 2.8 2.6 2.7 2.3 1.7 1.9 0.3 -0.3 0.2 0.4 0.4 1.1 0.9 0.5 0.5 0.4 -0.2 -0.2 -0.8 -0.7 -1.5 -1.7 -0.6
6.5 6.5 6.5 6.5 6.5 6.5 6.7 6.6 6.5 6.5 6.3 5.2 5.8 5.2 4.9 5.3 4.4 3.4 3.9 3.5 3.2 2.6 2.1 1.9 1.4 1.6 1.3 0.0 0.2 0.7 0.8 1.7 0.2 -0.1 -0.5 -1.2 -1.6 -1.4 -1.7 -2.5 -2.7 -2.8 -2.5 -2.2
6.5 6.5 6.5 6.5 6.5 6.6 6.4 6.4 5.0 4.3 3.8 3.1 4.0 4.3 5.4 5.6 5.0 3.9 3.7 3.6 3.0 2.8 2.0 1.5 1.5 1.9 1.9 0.2 0.3 1.1 1.7 -0.3 -1.5 -1.5 -1.8 -2.6 -3.2 -2.6 -3.3 -3.7 -3.4 -3.3 -2.9 -1.6
6.5 6.5 6.5 6.5 6.5 6.5 6.4 4.7 3.5 3.7 4.9 3.5 3.1 2.9 4.0 4.3 3.8 3.2 2.9 2.6 2.5 1.2 1.1 0.2 0.4 0.2 0.5 -0.3 -0.5 1.1 -0.9 -2.0 -2.4 -2.1 -2.9 -3.7 -4.0 -3.6 -4.3 -3.2 -2.4 -2.1 -1.4 -1.2
6.5 6.5 6.5 6.5 6.5 6.8 6.6 5.4 5.2 4.3 3.3 3.2 2.7 2.3 3.4 3.4 2.7 2.5 2.2 1.8 1.8 1.5 0.4 0.1 0.4 0.5 0.8 -0.1 -0.3 -0.9 -2.3 -3.1 -2.1 -2.0 -2.9 -2.9 -3.1 -3.6 -3.3 -2.9 -1.7 -1.3 -0.6 0.7
6.6 6.5 6.5 6.5 6.6 6.6 6.5 6.0 5.8 4.2 3.7 2.9 3.0 2.0 1.5 2.4 2.1 1.9 1.7 1.8 1.5 1.3 0.4 -0.3 -0.2 -0.4 -0.4 -1.0 -1.5 -2.7 -3.7 -3.4 -2.0 -1.6 -2.1 -1.5 -1.8 -2.3 -1.5 -1.3 -1.4 0.0 0.9 1.5
Wind_Speed
9 9 14 18 16 17 8 10 12 8 4 4 13 15 12 14 12 12 11 10 9 7 4 4 4 5 7 7 8 8 8 6 5 6 8 8 9 9 11 16 17 18 17 17
5 16 18 13 11 14 13 15 16 13 4 4 12 17 15 14 18 16 14 12 11 9 8 6 6 6 6 7 8 8 7 6 6 6 7 7 9 9 13 16 18 19 18 18
17 4 7 10 8 12 16 16 14 14 2 10 12 19 22 24 15 9 10 11 10 11 11 8 8 7 7 7 7 8 8 8 8 9 9 10 11 11 9 9 8 16 18 18
14 13 5 10 16 15 16 14 14 12 7 10 6 10 12 11 16 16 14 14 14 13 12 10 10 9 8 7 7 9 9 9 7 8 7 7 8 9 8 8 10 13 16 17
6 10 12 13 12 11 8 2 7 11 14 15 18 9 13 7 14 18 18 17 16 15 14 14 12 10 9 8 8 8 9 9 8 8 9 7 10 8 8 8 10 11 14 16
14 3 7 11 3 7 10 5 2 3 8 12 18 16 14 13 14 13 18 19 19 18 17 15 12 10 9 7 8 8 9 9 9 8 9 10 10 10 8 8 7 6 6 11
14 16 6 5 6 3 12 7 4 5 6 8 1 13 17 2 5 9 21 21 20 18 17 15 14 12 10 9 8 8 9 10 9 9 10 11 11 10 11 8 6 7 6 6
15 10 22 17 22 10 18 17 6 6 6 5 2 9 7 3 7 4 15 19 18 19 16 16 15 13 12 10 9 9 7 10 9 10 10 9 9 6 6 7 7 6 6 5
12 11 6 7 10 16 7 12 13 4 2 4 7 10 7 7 7 7 16 19 20 19 17 17 17 14 12 11 10 10 10 9 9 10 9 9 9 8 8 8 9 6 10 9
5 6 5 5 4 4 9 8 6 6 6 8 9 14 10 9 15 14 18 19 18 18 18 17 15 15 13 12 11 10 10 10 10 10 9 8 8 8 9 9 7 7 9 8
8 7 6 7 11 17 7 9 8 6 9 4 5 7 9 13 16 20 18 18 20 21 20 18 16 15 13 12 12 12 11 11 10 9 8 9 8 8 8 7 8 8 8 7
14 4 11 14 4 9 17 14 20 6 6 6 4 11 3 3 11 16 17 17 19 20 19 18 16 15 14 14 14 13 12 11 10 10 9 9 9 8 8 8 8 9 8 7
13 5 4 4 1 2 9 15 16 19 1 14 8 8 3 6 8 12 16 17 17 18 19 17 17 16 15 14 13 13 12 12 11 10 9 9 9 9 8 8 8 9 9 8
9 6 11 18 6 8 9 16 22 17 12 17 25 17 6 10 12 13 14 16 17 19 20 19 17 17 15 14 14 14 13 12 12 11 11 11 10 9 9 8 8 8 8 7
11 9 17 23 22 11 8 14 23 28 34 17 32 24 14 16 16 17 16 16 16 17 19 20 18 16 16 15 14 13 13 13 13 13 12 12 11 10 9 8 7 7 7 7
3 5 13 22 21 20 21 19 23 30 30 31 32 29 5 15 14 11 13 15 16 17 19 20 18 18 17 16 15 14 14 14 13 13 13 12 11 9 7 7 7 7 6 6
11 7 6 17 10 14 5 38 24 26 30 24 28 31 4 6 11 10 8 11 14 16 18 18 18 16 15 14 14 15 14 12 13 11 10 9 9 9 9 9 8 8 7 6
10 13 7 9 5 11 20 10 15 29 26 21 21 1 2 8 7 5 5 12 12 11 13 13 12 13 11 11 11 10 10 11 11 11 10 9 10 10 9 9 9 8 7 7
3 10 5 6 11 11 16 5 8 12 23 22 10 9 6 5 5 4 6 4 7 9 10 10 10 9 11 10 10 9 9 9 10 12 12 12 12 11 11 10 10 8 7 6
1 5 7 4 6 10 2 5 2 7 10 10 14 13 10 9 7 7 10 6 6 7 7 9 8 7 7 7 8 9 9 10 12 12 13 12 12 12 12 11 9 7 6 6
4 3 13 13 6 5 3 6 3 8 2 3 9 11 11 6 3 5 11 8 7 8 9 8 7 7 7 8 9 9 10 12 12 7 7 9 10 10 9 9 7 7 6 5
11 9 6 5 5 10 9 4 7 1 3 4 4 7 9 6 5 7 9 10 9 9 7 6 7 6 6 7 8 7 9 9 6 7 7 7 7 6 6 8 7 7 6 6
5 4 4 3 1 3 4 2 2 1 4 3 4 5 7 8 7 9 9 9 7 8 6 4 4 4 4 5 6 6 7 6 7 7 6 7 7 6 7 7 7 6 6 6
3 2 4 4 1 1 4 4 4 1 2 2 3 7 9 8 8 5 6 6 6 5 5 4 5 4 5 5 6 8 5 6 6 6 6 6 6 7 6 6 6 6 7 7
2 7 5 4 4 5 5 5 6 6 1 3 4 5 8 8 7 6 5 6 4 4 4 4 6 5 6 5 6 5 6 6 5 5 6 7 6 8 7 7 7 7 7 8
5 5 4 3 12 6 10 16 13 9 8 5 6 4 3 6 8 6 5 5 5 5 4 4 4 4 3 4 3 4 4 6 6 6 5 5 5 5 5 5 5 13 14 13
Wind_Direction
202 216 218 224 226 251 289 282 266 269 101 258 243 251 224 198 214 218 210 206 198 180 147 123 118 123 118 112 103 103 111 135 133 121 111 95 85 80 75 69 65 64 60 61
185 229 236 241 267 235 239 253 256 264 150 253 270 264 260 226 212 218 217 207 191 167 160 144 132 128 119 115 112 113 115 114 93 93 95 100 100 89 89 81 70 66 64 64
225 225 238 198 211 218 234 240 252 260 143 239 273 267 255 244 207 214 232 206 184 176 163 152 141 129 123 113 111 107 102 103 98 105 108 109 114 111 102 87 77 65 65 62
243 238 167 205 227 219 243 227 254 262 251 261 166 281 278 242 207 211 205 199 183 170 162 149 145 136 125 116 109 107 105 104 104 131 136 125 110 107 91 87 84 74 68 68
208 186 201 214 222 206 255 63 228 247 258 272 255 264 264 242 215 208 203 197 185 172 165 161 153 140 129 128 116 111 110 107 110 112 113 111 107 107 106 98 90 81 69 65
259 18 204 220 110 205 130 115 85 254 264 257 240 234 258 218 231 201 188 191 181 174 170 164 152 149 139 136 131 124 120 110 106 105 105 108 113 115 117 112 102 90 83 76
216 221 179 177 153 151 200 177 249 238 213 256 323 219 248 226 168 199 182 185 180 174 171 166 165 167 155 149 137 131 127 117 113 110 112 114 115 116 119 120 117 116 102 86
214 226 198 200 214 196 197 198 203 247 235 267 23 235 244 254 113 135 177 179 173 175 177 177 175 169 163 157 152 142 131 127 124 119 117 117 115 115 109 111 118 113 112 99
206 235 190 190 221 211 169 222 236 310 160 269 224 246 260 161 181 170 168 172 178 180 179 179 177 175 169 168 164 157 149 142 140 136 133 134 132 136 126 121 115 111 108 104
217 242 172 150 174 248 210 160 176 217 229 239 242 242 241 209 198 181 179 181 180 181 183 183 181 179 175 174 167 163 163 160 153 152 148 143 138 135 132 131 123 116 115 114
204 240 133 152 202 186 180 205 218 224 222 257 275 243 187 204 189 185 185 185 184 186 185 184 183 181 176 173 170 172 172 167 166 163 156 149 152 149 143 137 130 129 127 130
199 218 234 215 130 255 225 214 205 211 186 242 288 254 157 135 176 174 184 187 189 189 185 185 182 177 177 177 177 180 178 173 174 170 167 164 161 161 158 147 145 147 146 153
166 190 224 248 192 178 223 218 228 227 93 226 213 247 141 144 156 179 179 184 185 183 184 184 183 186 184 182 180 181 182 181 178 172 172 174 177 178 168 160 159 168 164 169
147 155 202 228 216 154 204 207 208 212 225 235 237 248 183 207 190 184 186 182 182 186 187 187 188 187 185 186 183 184 185 185 180 178 183 186 187 186 177 171 174 172 180 179
166 220 222 246 254 244 206 205 207 209 225 215 248 239 221 201 199 195 184 178 182 187 191 193 192 187 183 185 183 186 188 187 185 187 190 193 190 188 180 172 173 169 184 189
148 240 224 255 242 245 259 248 221 219 228 231 246 253 242 194 195 183 182 175 184 192 198 196 190 188 188 185 187 186 193 187 187 191 195 190 191 181 166 163 173 175 186 191
174 196 188 250 211 243 276 237 227 232 224 223 235 246 141 153 180 189 170 182 198 199 198 193 192 189 186 182 185 191 191 179 187 192 191 185 176 170 175 174 178 187 193 197
182 192 203 252 114 217 243 278 235 234 241 228 246 122 103 168 162 143 176 201 205 200 192 188 183 181 179 181 184 187 179 182 182 189 184 173 172 183 181 179 188 190 192 198
183 191 206 220 223 287 279 172 183 184 242 231 222 138 136 104 85 228 204 220 188 182 177 173 169 166 164 168 167 166 165 174 176 193 190 188 187 185 182 189 191 190 190 196
46 232 205 163 226 231 345 100 248 146 264 176 172 172 152 145 208 226 161 158 130 126 134 140 134 127 141 149 145 150 166 171 193 195 199 190 187 189 191 192 186 181 184 197
160 192 216 222 235 274 134 154 213 168 262 51 149 157 157 161 171 132 142 143 139 139 133 123 130 155 160 146 149 171 170 194 204 181 165 178 185 189 185 176 174 166 179 196
175 173 194 210 231 247 145 121 190 63 66 123 135 169 175 127 109 127 140 142 143 137 134 143 148 172 156 148 159 169 187 206 147 149 160 163 163 167 168 163 158 166 179 191
199 202 182 225 217 341 98 14 202 176 93 146 177 174 161 146 159 154 150 149 146 146 144 137 141 143 150 156 173 181 219 147 144 150 158 149 145 161 160 165 170 178 190 209
230 189 170 151 98 62 46 346 333 348 244 137 114 151 158 153 151 137 133 143 153 148 147 131 140 183 223 196 191 213 132 133 142 155 147 141 161 169 167 185 190 197 198 204
78 149 144 93 122 134 204 245 269 258 348 139 125 166 167 141 147 151 154 162 166 159 141 155 186 205 229 179 204 171 151 143 156 156 160 169 185 187 187 206 202 210 215 213
184 162 192 164 160 142 198 213 219 202 210 174 160 130 106 139 161 154 177 175 169 183 161 180 195 198 191 164 155 129 130 154 163 174 176 185 185 182 207 204 225 237 239 238